Regional Weather Roundup
Issued by NWS Boston, MA

Current Version | Previous Version | Text Only | Print | Product List | Glossary Off
Versions: 1 2 3 4 5 6 7 8 9 10 11 12 13 14 15 16 17 18 19 20 21 22 23 24 25 26 27 28 29 30 31 32 33 34 35 36 37 38 39 40 41 42 43 44 45 46 47 48 49 50
000 ASUS41 KBOX 212010 RWRBOX REGIONAL WEATHER ROUNDUP NATIONAL WEATHER SERVICE TAUNTON MA 400 PM EDT SUN MAY 21 2017 NOTE: "FAIR" INDICATES FEW OR NO CLOUDS BELOW 12,000 FEET WITH NO SIGNIFICANT WEATHER AND/OR OBSTRUCTIONS TO VISIBILITY. MAZALL-212100- EASTERN MASSACHUSETTS CITY SKY/WX TMP DP RH WIND PRES REMARKS BOSTON CLOUDY 60 34 37 E15 30.31F BEVERLY SUNNY 62 37 39 SE10 30.31F LAWRENCE SUNNY 68 34 28 E8 30.31F BEDFORD MOSUNNY 66 33 29 E10 30.29F BLUE HILL N/A 65 33 30 E10 30.28F NORWOOD SUNNY 68 38 33 NE8 30.28F MARSHFIELD SUNNY 61 30 31 VRB7 30.32S PLYMOUTH SUNNY 65 32 29 E6 30.32F TAUNTON SUNNY 68 41 37 SE12 30.29F NEW BEDFORD SUNNY 64 40 41 SE13G20 30.31F $$ MAZALL-212100- CAPE COD AND THE ISLANDS CITY SKY/WX TMP DP RH WIND PRES REMARKS FALMOUTH N/A 61 32 33 MISG 30.33 HYANNIS CLOUDY 61 30 31 SE8 30.31F CHATHAM SUNNY 59 28 30 SE7 30.33F PROVINCETOWN SUNNY 63 28 26 E8 30.33F NANTUCKET CLOUDY 57 34 41 SE13 30.32F MARTHAS VNYRD CLOUDY 62 33 33 S10 30.33F $$ MAZALL-212100- CENTRAL AND WESTERN MASSACHUSETTS CITY SKY/WX TMP DP RH WIND PRES REMARKS WORCESTER SUNNY 66 37 34 VRB7 30.28F FITCHBURG SUNNY 71 41 33 SW7 30.28F ORANGE MOSUNNY 68 35 29 S8 30.28F SPRINGFIELD PTSUNNY 70 43 38 SW8 30.26F WESTFIELD SUNNY 70 47 43 S6 30.26F NORTH ADAMS MOSUNNY 69 39 33 VRB6 30.24F PITTSFIELD SUNNY 68 40 35 SW9 30.23F $$ RIZALL-212100- RHODE ISLAND CITY SKY/WX TMP DP RH WIND PRES REMARKS PROVIDENCE PTSUNNY 68 37 32 S13 30.31F NEWPORT SUNNY 63 35 35 S12 30.33R BLOCK ISLAND SUNNY 62 34 35 SW9 30.34S SMITHFIELD MOSUNNY 69 42 37 VRB5 30.29F WESTERLY SUNNY 65 31 28 S8 30.33F $$ CTZALL-212100- CONNECTICUT CITY SKY/WX TMP DP RH WIND PRES REMARKS BRADLEY INTL MOSUNNY 71 42 35 SE12 30.27F HARTFORD SUNNY 69 43 38 S9 30.28F BRIDGEPORT SUNNY 65 42 43 E9 30.31F DANBURY SUNNY 67 40 37 S14G21 30.29F GROTON SUNNY 62 44 51 S9 30.32F NEW HAVEN SUNNY 66 37 34 SE10 30.32F CHESTER FAIR 64 36 34 SE9 30.31F MERIDEN SUNNY 67 36 31 S9G16 30.30F WILLIMANTIC MOSUNNY 71 41 33 S7 30.28F OXFORD SUNNY 66 37 34 SW12G18 30.30F $$ MEZ002-015-021-024-NHZ003-005-008-011-012-014-VTZ005-008-212100- NORTHERN NEW ENGLAND CITY SKY/WX TMP DP RH WIND PRES REMARKS PORTLAND ME MOSUNNY 63 28 26 S13 30.28F BANGOR ME MOSUNNY 70 25 18 N12 30.25F CONCORD NH SUNNY 70 32 24 S9 30.26F MANCHESTER NH PTSUNNY 71 33 24 S7 30.25F NASHUA NH SUNNY 70 38 31 VRB7 30.28F PORTSMOUTH NH PTSUNNY 63 28 26 SE12 30.28F JAFFREY NH MOSUNNY 69 39 33 S8 30.28F KEENE NH SUNNY 70 40 33 SW7 30.26F BURLINGTON VT CLOUDY 69 36 29 SW12 30.22F MT. WASHINGTON MOSUNNY 48 28 46 SW12 N/A $$ NYZ052-076-212100- EASTERN NEW YORK CITY SKY/WX TMP DP RH WIND PRES REMARKS ALBANY PTSUNNY 71 43 36 S13G21 30.22F NEW YORK CITY MOSUNNY 67 31 26 S16G23 30.32F $$ ANZALL-212100- MARINE OBSERVATIONS STATION/POSITION TIME TEMP WIND PRES VSBY WAVE AIR SEA DIR/SP/G HT/PER (UTC) (F) (DEG/KT/KT) (MB) (MI) (FT/S) BOSTON BUOY 1950 55 56 90/ 8/ 8 1026.3F 1/ 5 BUZZARDS BAY 1900 56 160/ 9/ 9 1027.7F NANTUCKET SOUND 1950 55 1026.9F 0 MASS BAY-STELLWA 1904 55 56 120/ 6/ 8 1026.6F 1/ 3 ISLE OF SHOALS 1900 54 160/ 13/ 14 1026.7F S OF BLOCK IS 1955 58 N/A 1/ 8 $$ ......................KEY......................... SKY/WX - SKY CONDITION/PRESENT WEATHER TMP - TEMPERATURE IN FAHRENHEIT DWPT - DEWPOINT IN FAHRENHEIT RH - RELATIVE HUMIDITY IN PERCENT WIND - DIRECTION AND SPEED IN MPH PRES - MEAN SEA LEVEL PRESSURE IN INCHES OF HG WCI - WIND CHILL INDEX VSB - VISIBILITY IN MILES HX - HEAT INDEX TC - TEMPERATURE IN CELSIUS VRB - VARIABLE WIND DIRECTION N/A - NOT AVAILABLE

USA.gov is the U.S. government's official web portal to all federal, state and local government web resources and services.